Location: Wald
(31.7579°N, 86.6655°W)
Time: 11:31:21
(UTC+00:00)

Cosmos 2237 Rocket - Pass Details

Date: 14 July 2020
Orbit: 834 x 850 km, 71.0° (Epoch: 09 August)

Event Time Altitude Azimuth Distance (km) Brightness Sun altitude
Rises 01:12:39 0° 164° (SSE) 3,392 4.9 -4.4°
Reaches altitude 10° 01:15:37 10° 149° (SSE) 2,463 4.1 -4.9°
Maximum altitude 01:19:48 22° 101° (E) 1,790 3.4 -5.7°
Drops below altitude 10° 01:24:00 10° 53° (NE) 2,477 4.4 -6.5°
Sets 01:26:59 0° 38° (NE) 3,416 5.3 -7.0°
